TimeEDT,TemperatureF,Dew PointF,Humidity,Sea Level PressureIn,VisibilityMPH,Wind Direction,Wind SpeedMPH,Gust SpeedMPH,PrecipitationIn,Events,Conditions,WindDirDegrees,DateUTC
12:56 AM,53.1,45.0,74,29.81,10.0,West,8.1,-,N/A,,Clear,270,2012-10-01 04:56:00
1:56 AM,52.0,45.0,77,29.81,10.0,WSW,5.8,-,N/A,,Clear,250,2012-10-01 05:56:00
2:56 AM,52.0,45.0,77,29.81,10.0,West,8.1,-,N/A,,Clear,260,2012-10-01 06:56:00
3:56 AM,51.8,44.6,76,29.81,10.0,West,8.1,-,N/A,,Clear,270,2012-10-01 07:56:00
4:56 AM,51.8,44.6,76,29.81,10.0,West,5.8,-,N/A,,Clear,260,2012-10-01 08:56:00
5:56 AM,51.1,45.0,80,29.82,10.0,West,8.1,-,N/A,,Clear,260,2012-10-01 09:56:00
6:56 AM,51.8,44.6,76,29.83,10.0,West,8.1,-,N/A,,Clear,270,2012-10-01 10:56:00
7:56 AM,53.6,44.6,72,29.84,10.0,West,9.2,-,N/A,,Clear,260,2012-10-01 11:56:00
8:56 AM,57.2,44.6,63,29.85,10.0,West,8.1,-,N/A,,Clear,280,2012-10-01 12:56:00
9:56 AM,60.8,46.4,59,29.87,10.0,WNW,11.5,18.4,N/A,,Partly Cloudy,290,2012-10-01 13:56:00
10:56 AM,61.0,46.9,60,29.87,10.0,West,12.7,21.9,N/A,,Partly Cloudy,270,2012-10-01 14:56:00
11:56 AM,63.0,48.0,58,29.87,10.0,WNW,16.1,23.0,N/A,,Partly Cloudy,300,2012-10-01 15:56:00
12:56 PM,66.0,50.0,56,29.86,10.0,WNW,11.5,19.6,N/A,,Partly Cloudy,300,2012-10-01 16:56:00
1:56 PM,66.2,48.2,52,29.86,10.0,WNW,13.8,17.3,N/A,,Partly Cloudy,300,2012-10-01 17:56:00
2:56 PM,68.0,48.9,50,29.86,10.0,West,10.4,-,N/A,,Partly Cloudy,280,2012-10-01 18:56:00
3:56 PM,68.0,50.0,52,29.86,10.0,WNW,9.2,-,N/A,,Clear,300,2012-10-01 19:56:00
4:56 PM,66.2,50.0,56,29.88,10.0,WNW,10.4,-,N/A,,Partly Cloudy,300,2012-10-01 20:56:00
5:56 PM,66.0,48.9,54,29.89,10.0,West,5.8,-,N/A,,Partly Cloudy,270,2012-10-01 21:56:00
6:56 PM,59.0,51.1,75,29.92,10.0,Calm,Calm,-,N/A,,Clear,0,2012-10-01 22:56:00
7:56 PM,57.0,52.0,83,29.94,10.0,Calm,Calm,-,N/A,,Clear,0,2012-10-01 23:56:00
8:56 PM,55.0,52.0,89,29.96,10.0,WNW,4.6,-,N/A,,Clear,290,2012-10-02 00:56:00
9:56 PM,57.0,52.0,83,29.96,10.0,Calm,Calm,-,N/A,,Clear,0,2012-10-02 01:56:00
10:56 PM,55.9,52.0,87,29.96,10.0,Calm,Calm,-,N/A,,Clear,0,2012-10-02 02:56:00
11:56 PM,57.2,53.6,88,29.97,10.0,NW,4.6,-,N/A,,Clear,310,2012-10-02 03:56:00